Regional Weather Roundup
Issued by NWS

Home | Current Version | Previous Version | Graphics & Text | Print | Product List | Glossary Off
Versions: 1 2 3 4 5 6 7 8 9 10 11 12 13 14 15 16 17 18 19 20 21 22 23 24 25 26 27 28 29 30 31 32 33 34 35 36 37 38 39 40 41 42 43 44 45 46 47 48 49 50

000
ASUS43 KMKX 021711
RWRWI

WISCONSIN REGIONAL WEATHER ROUNDUP
NATIONAL WEATHER SERVICE MILWAUKEE/SULLIVAN WI
1200 PM CDT MON MAY 02 2016

NOTE: "FAIR" INDICATES FEW OR NO CLOUDS BELOW 12,000 FEET WITH NO
SIGNIFICANT WEATHER AND/OR OBSTRUCTIONS TO VISIBILITY.

WIZ001-002-006>008-014>016-023>028-021800-
NORTHWEST WISCONSIN

CITY           SKY/WX    TMP DP  RH WIND       PRES   REMARKS
SUPERIOR ARPT  SUNNY     57  37  46 NE6       30.10F
ASHLAND        SUNNY     60  38  43 N12       30.11F
HAYWARD        SUNNY     59  31  34 CALM      30.09S
SIREN          SUNNY     62  29  29 N8        30.09S
CUMBERLAND     MOSUNNY   59  34  38 W7        30.08F
RICE LAKE      SUNNY     60  34  37 CALM      30.10F
CHETEK         SUNNY     60  36  41 CALM      30.09F
LADYSMITH      SUNNY     60  35  39 CALM      30.11F
EAU CLAIRE     SUNNY     61  33  35 S6        30.09F
MENOMONIE      SUNNY     65  38  36 CALM      30.09F
NEW RICHMOND   MOSUNNY   62  37  39 NE5G22    30.10F
OSCEOLA        SUNNY     60  34  37 NE5       30.12F
$$

WIZ003>005-009-010-017-018-021800-
NORTH CENTRAL WISCONSIN

CITY           SKY/WX    TMP DP  RH WIND       PRES   REMARKS
MANITOWISH WTR MOSUNNY   58  33  39 NW7       30.08F
ARBOR VITAE    MOSUNNY   59  32  35 N7        30.08F
WOODRUFF       MOSUNNY   59  32  35 N7        30.08F
RHINELANDER    CLOUDY    57  31  37 CALM      30.09S
EAGLE RIVER    PTSUNNY   56  28  33 N7        30.08F
LAND O LAKES   MOSUNNY   59  28  31 N9        30.09F
PHILLIPS       PTSUNNY   56  33  42 NW5       30.09S
TOMAHAWK       CLOUDY    57  32  39 W8        30.09S
MEDFORD        PTSUNNY   56  35  44 N3        30.09F
MERRILL        CLOUDY    58  33  39 NE6       30.10S
$$

WIZ029-030-035-036-043>047-021800-
CENTRAL WISCONSIN

CITY           SKY/WX    TMP DP  RH WIND       PRES   REMARKS
WAUSAU         MOSUNNY   61  31  32 SW6       30.07F
MOSINEE        PTSUNNY   59  32  36 NW6       30.11S
MARSHFIELD     PTSUNNY   58  34  40 CALM      30.09F
STEVENS POINT  PTSUNNY   57  30  36 NW7       30.10S
WAUPACA        SUNNY     62  30  29 NW6       30.10S
WAUTOMA        SUNNY     60  29  30 NE8       30.09F
WISC RAPIDS    PTSUNNY   59  29  31 N6        30.11F
CAMP DOUGLAS   MOSUNNY   59  37  44 NE7       30.09F
$$

WIZ011>013-019>022-031-037>040-048>050-021800-
NORTHEAST WISCONSIN

CITY           SKY/WX    TMP DP  RH WIND       PRES   REMARKS
ANTIGO         MOSUNNY   56  32  40 CALM      30.08F
SHAWANO        SUNNY     62  29  29 E6        30.09S
OCONTO         SUNNY     59  35  40 E7        30.08S
STURGEON BAY   SUNNY     55  34  44 N12       30.11S
GREEN BAY      LGT RAIN  61  37  41 E8        30.09S
MANITOWOC      SUNNY     58  40  51 SE8G18    30.09R
APPLETON       MOSUNNY   57  30  35 N8        30.08S
CLINTONVILLE   SUNNY     61  28  29 E6        30.09S
OSHKOSH        SUNNY     58  37  45 NE8       30.09S
$$

WIZ032>034-041-042-053>061-021800-
SOUTHWEST WISCONSIN

CITY           SKY/WX    TMP DP  RH WIND       PRES   REMARKS
LA CROSSE      SUNNY     61  35  37 S7        30.10F
SPARTA         MOSUNNY   60  38  45 NW6       30.10F
VIROQUA        MOSUNNY   60  35  39 CALM      30.10S
BOSCOBEL       SUNNY     61  37  41 VRB5      30.11S
PRAIRIE DU CHI SUNNY     57  45  64 S3        30.10F
PLATTEVILLE    PTSUNNY   57  40  54 NE3       30.10S
$$

WIZ056-057-062-063-064-067-068-021800-
SOUTH CENTRAL WISCONSIN

CITY           SKY/WX    TMP DP  RH WIND       PRES   REMARKS
REEDSBURG      SUNNY     59  36  43 N6        30.09F
BARABOO/DELLS  MOSUNNY   59  34  39 NW6       30.09S
LONE ROCK      MOSUNNY   60  38  43 NE5       30.10F
MINERAL POINT  MOSUNNY   59  36  41 CALM      30.09S
MADISON        PTSUNNY   59  39  47 NE12      30.08F
MIDDLETON      SUNNY     58  39  48 NE6       30.09F
WATERTOWN      MOSUNNY   59  39  48 N9        30.07F
MONROE         MOSUNNY   57  37  47 N10G16    30.07F
JANESVILLE     PTSUNNY   61  37  41 E12G17    30.06F
$$

WIZ051-052-058>065-066-070>072-021800-
SOUTHEAST WISCONSIN

CITY           SKY/WX    TMP DP  RH WIND       PRES   REMARKS
MILWAUKEE      PTSUNNY   52  39  61 NE8       30.08F
WAUKESHA       MOSUNNY   54  36  50 NE9G17    30.09S
MILWAUKEE/TIMM SUNNY     55  30  38 NE9       30.08F
RACINE         SUNNY     52  39  61 N13       30.09F
BURLINGTON     SUNNY     58  34  41 NE13G18   30.06F
KENOSHA        SUNNY     58  39  49 N9        30.07F
FOND DU LAC    SUNNY     59  38  45 NE13      30.09F
SHEBOYGAN      SUNNY     56  40  55 E5        30.08F
WEST BEND      PTSUNNY   59  36  41 NE12      30.07F
JUNEAU         SUNNY     57  37  46 N10       30.08F
$$

LSZ147-162-021800-
LAKE SUPERIOR

STATION/POSITION TIME  TEMP    WIND        PRES    WAVE
                       AIR SEA DIR/SP/G            HT/PER
                 (UTC) (F)     (DEG/KT/KT) (MB)    (FT/S)
W MID LAKE BUOY  1650   38 37  180/  4/  4 1020.8F   1
DEVILS ISLAND    1700   45     120/  4/  5 1020.4F
SAXON HARBOR     1640   42      30/  3/  5 1019.6F
$$

LMZ867-665-643>646-021800-
LAKE MICHIGAN

STATION/POSITION TIME  TEMP    WIND        PRES    WAVE
                       AIR SEA DIR/SP/G            HT/PER
                 (UTC) (F)     (DEG/KT/KT) (MB)    (FT/S)
CHAMBERS ISLAND  1600   49      70/  4/  6 1019.0F
N MID LAKE BUOY  1650   40 39  260/  2/  2 1018.8F   0
NORTHPORT PIER   1600   46     320/  8/  9 1018.6F
KEWAUNEE LAKESHO 1600   46      50/  5/  7 1018.2R
SHEBOYGAN LAKESH 1700   43      40/  7/  8 1019.7F
PORT WASHINGTON  1600   49      50/  9/ 11 1019.6
S MID LAKE BUOY  1650   41 41  350/  6/  6 1018.2F   1/ 4
KENOSHA   LAKESH 1700   44      30/ 14/ 16 1018.3S
$$

TC  - TEMPERATURE IN CELSIUS
VSB - VISIBILITY IN STATUTE MILES
WCI - WIND CHILL INDEX
HX  - HEAT INDEX





USA.gov is the U.S. government's official web portal to all federal, state and local government web resources and services.